GFSCGP_sfc_30mbdewp_120.txt.gz
Dewpoint
25 17 15 22 24 14 19 16 15 24 27 27 23 23 23 25 27 26 24 28 40 42 43 42 41 42 42 42 42 43 42 43 43 44 46 48 49 51 51 52 50 49 50 51
20 21 24 26 24 22 20 18 23 29 29 29 27 24 26 28 29 29 28 28 35 41 41 41 41 41 41 41 41 42 41 41 41 43 45 48 49 50 50 49 49 46 46 47
19 24 28 25 25 22 26 21 23 22 28 30 26 13 17 32 34 35 34 34 38 40 40 39 39 40 40 40 41 40 39 38 39 41 45 47 47 47 45 45 43 42 42 43
25 28 27 26 26 24 18 30 30 28 20 4 26 2 9 24 30 34 35 36 38 39 39 39 39 39 40 40 40 39 37 36 36 37 40 42 43 41 42 42 42 40 38 38
24 27 27 26 28 29 26 31 30 29 25 22 22 15 10 28 25 29 34 37 38 38 39 39 39 39 41 40 39 37 34 32 33 34 36 35 33 35 35 36 33 34 35 35
28 29 31 29 32 31 32 30 26 26 24 9 20 21 13 20 24 28 32 36 37 38 39 39 39 40 40 40 38 37 31 29 30 30 31 32 31 32 31 31 30 31 31 32
27 30 32 32 29 31 28 26 6 7 11 6 24 25 20 24 27 30 31 34 37 38 38 38 38 39 40 40 38 37 35 29 28 27 27 28 28 28 28 29 28 28 29 29
13 13 29 32 30 26 29 25 9 -6 4 19 25 22 20 28 34 35 36 36 37 38 38 38 38 38 39 40 39 37 36 30 26 24 25 25 25 25 25 25 24 23 23 24
23 26 33 33 34 30 29 25 27 22 24 21 18 21 23 28 31 35 35 36 36 36 36 37 38 38 39 39 40 38 35 27 24 22 22 21 22 22 21 21 22 21 22 21
28 26 32 32 33 34 30 31 23 23 14 12 16 18 16 26 29 32 33 35 36 36 36 37 37 38 38 39 40 38 34 31 22 23 21 21 21 20 21 21 21 20 19 20
30 27 29 31 31 29 31 29 28 26 23 17 12 6 22 26 28 25 28 33 35 36 36 36 37 37 38 39 39 37 34 30 25 22 22 21 20 20 21 21 22 20 19 19
32 28 25 27 32 33 31 29 27 21 19 24 22 14 24 29 30 30 29 31 34 36 36 36 36 37 38 38 38 37 35 29 28 24 22 21 21 21 21 22 22 20 18 19
31 27 23 24 27 32 31 30 28 25 25 23 17 4 24 30 33 34 33 33 33 34 35 36 36 37 38 38 38 37 35 32 27 26 23 21 21 22 21 22 21 18 18 19
30 27 23 11 15 27 29 29 29 27 24 22 22 17 18 19 21 25 31 34 34 34 34 35 35 37 37 38 38 38 37 35 30 25 23 21 21 22 22 22 19 18 19 19
29 19 25 25 26 26 26 27 29 28 27 24 20 20 21 21 22 24 23 24 29 31 34 34 35 36 37 37 38 38 38 37 31 24 22 20 21 22 22 19 18 18 19 19
31 21 25 21 24 25 24 26 26 28 29 28 28 28 29 29 29 26 25 25 26 29 32 34 35 36 36 37 38 38 38 37 31 25 21 21 21 22 21 19 18 18 18 18
28 26 22 12 19 21 12 17 23 25 27 27 24 23 25 23 22 23 24 24 24 25 27 30 33 35 36 37 38 38 38 36 31 25 22 21 21 22 21 19 18 17 17 18
27 25 24 19 18 -9 -1 15 19 21 21 25 24 22 22 22 23 24 24 24 24 25 26 28 32 34 36 37 38 38 38 35 31 26 22 21 22 21 20 19 17 17 17 17
28 26 22 16 14 10 5 17 18 16 6 18 22 22 22 22 23 17 23 26 26 26 28 30 33 35 36 37 38 38 36 34 30 27 23 22 22 21 20 18 15 16 17 17
28 27 23 22 12 -10 -4 14 21 18 -3 5 17 16 17 21 14 14 18 28 28 30 32 32 34 36 37 37 38 37 35 33 30 27 24 23 23 21 19 16 15 17 18 17
26 26 25 24 20 17 20 20 22 1 -2 13 18 18 19 19 19 19 24 26 29 32 32 32 33 34 36 36 35 35 34 32 30 26 24 23 22 20 17 16 17 17 17 18
20 21 22 24 22 7 23 21 11 9 17 20 20 20 20 21 22 23 24 25 28 30 31 32 32 32 33 32 32 33 32 30 27 25 24 22 20 17 16 16 16 17 17 17
14 20 16 22 14 20 23 21 21 23 23 21 22 21 21 21 22 23 24 26 28 30 31 32 32 32 31 29 29 30 29 26 25 23 21 19 16 14 15 15 15 16 17 16
17 21 19 16 14 18 18 21 23 21 20 23 24 23 23 23 23 23 24 26 27 28 28 31 32 32 31 28 27 28 27 24 22 20 18 15 13 14 15 16 17 17 17 16
16 19 16 17 16 20 17 22 24 24 26 27 26 26 24 23 23 25 25 26 26 27 29 30 31 31 31 29 26 25 24 21 20 18 15 14 14 18 16 17 17 17 17 16
22 19 17 16 20 24 26 27 27 27 27 28 28 27 26 24 25 26 26 28 28 28 29 30 31 31 31 29 26 24 21 19 18 16 14 14 14 15 17 17 17 20 21 21

GFSCGP_sfc_30mbdewp_123.txt.gz
Dewpoint
23 18 18 21 18 13 17 12 14 24 28 27 22 22 21 23 25 24 23 23 32 42 43 42 42 41 42 41 42 41 41 40 41 43 46 47 49 50 50 50 46 46 47 48
22 22 26 25 23 20 18 16 22 28 30 28 27 22 23 26 26 27 26 26 26 38 42 41 41 41 41 41 41 40 38 38 39 41 44 47 48 48 48 46 42 41 42 44
21 25 27 25 24 20 26 18 21 19 27 28 25 12 10 28 32 34 34 33 31 34 41 41 40 40 41 40 40 39 37 36 37 39 44 46 47 44 42 40 39 37 36 39
25 29 26 25 25 23 19 30 29 25 17 0 24 -0 8 18 26 33 34 35 36 38 40 40 40 40 40 41 40 38 35 35 34 37 38 41 40 38 40 40 37 35 34 34
24 27 26 25 28 28 28 31 29 27 23 20 19 13 9 24 20 24 32 35 37 39 39 39 40 40 41 41 40 37 33 32 33 34 36 35 33 35 35 35 33 33 32 32
29 31 31 30 32 31 32 27 25 24 22 6 20 19 10 14 21 27 31 35 37 38 39 39 39 40 40 41 39 36 31 30 31 30 31 32 31 32 31 31 31 31 30 30
27 29 32 32 29 30 28 21 5 7 6 5 24 24 18 22 25 29 30 32 36 38 38 39 39 39 40 41 39 37 36 30 28 27 27 28 28 29 28 29 28 27 27 26
14 14 28 32 29 25 28 22 6 3 -2 15 25 19 18 27 34 33 35 36 36 37 38 39 39 39 39 40 40 37 37 31 27 24 25 26 26 27 26 26 27 25 25 25
22 24 32 33 33 30 29 23 25 20 24 19 14 19 21 29 27 32 34 36 36 37 38 38 38 38 39 40 40 39 36 35 25 23 23 23 23 23 23 23 24 23 23 21
27 25 31 33 33 34 29 30 21 22 7 11 14 16 15 22 28 29 30 33 35 36 36 37 37 38 39 39 40 40 38 34 27 23 22 21 22 21 22 22 22 21 20 21
29 27 29 31 30 29 30 29 27 24 22 16 12 6 20 24 27 27 28 31 33 35 36 36 37 38 38 39 39 39 38 34 31 23 22 22 21 21 21 21 22 21 19 19
32 27 25 27 31 32 31 28 26 19 19 23 21 12 22 25 31 30 29 31 32 34 36 36 37 37 37 37 38 39 38 36 31 28 22 22 21 21 21 22 22 21 18 19
31 27 22 23 26 31 31 30 27 24 24 22 15 4 19 25 30 33 33 34 34 33 33 35 36 36 36 37 38 38 38 37 33 29 25 22 21 21 21 22 22 19 18 18
30 27 22 11 15 28 29 30 28 26 24 21 21 17 16 19 20 21 22 25 28 31 33 34 35 35 36 37 38 38 39 37 35 30 27 24 22 22 22 22 22 19 18 18
27 20 24 24 24 26 26 28 29 27 26 23 19 20 21 23 25 27 27 27 25 25 28 31 33 35 36 37 38 39 39 38 36 32 28 25 23 22 22 22 20 19 19 19
30 20 24 20 24 24 23 24 26 29 28 27 27 27 28 29 26 25 24 24 24 25 25 28 32 34 35 36 37 38 39 39 37 35 31 26 23 22 22 22 20 19 18 18
27 24 20 8 20 19 9 15 22 25 28 27 24 24 25 22 22 22 22 22 23 24 24 25 27 31 34 35 37 37 38 39 37 36 33 27 23 21 22 22 20 19 17 17
27 24 23 18 16 -10 -1 17 21 22 23 27 25 24 24 23 23 23 22 22 21 23 24 25 27 29 33 35 36 37 38 38 37 35 33 28 24 22 22 21 20 18 17 16
27 25 21 15 14 10 7 16 17 16 8 17 22 21 21 20 21 20 16 23 25 26 27 29 31 33 34 35 36 37 38 38 36 34 32 29 24 22 22 21 20 17 16 17
28 26 22 21 11 -8 -4 13 21 19 -0 10 20 17 17 19 16 16 18 21 24 26 28 31 32 33 34 35 37 37 37 37 35 34 33 28 25 23 22 21 19 17 17 17
26 26 24 23 19 17 18 18 21 2 1 13 19 19 20 20 20 20 22 23 25 27 28 31 33 32 33 34 36 36 36 36 36 33 30 26 24 23 22 20 17 17 17 18
21 21 22 23 22 6 22 21 12 10 19 20 21 22 23 24 23 23 24 24 25 26 28 30 31 31 32 32 32 33 33 34 33 30 28 26 23 22 20 17 17 17 17 17
14 20 17 21 15 20 23 21 22 23 23 22 22 24 26 24 24 25 24 24 25 27 28 29 30 31 31 32 29 30 31 30 28 27 25 23 21 18 17 15 15 15 16 17
17 22 19 17 18 20 19 21 23 24 23 23 26 27 26 26 26 25 24 25 26 26 27 29 29 29 29 31 29 28 29 27 26 24 22 20 18 15 15 15 15 15 17 17
16 20 17 18 16 22 19 24 27 27 27 25 27 28 29 28 26 25 25 26 27 28 28 29 30 30 30 31 30 27 26 25 23 22 20 17 15 18 14 15 16 17 17 16
21 18 15 16 20 25 25 27 28 26 24 24 26 28 29 29 27 27 27 28 29 29 30 29 30 31 31 32 30 27 24 23 22 20 18 16 15 16 17 16 17 22 21 21

GFSCGP_sfc_30mbdewp_126.txt.gz
Dewpoint
26 20 20 20 19 18 17 18 18 23 29 26 20 21 20 20 23 19 17 21 28 37 41 44 43 42 42 42 41 41 40 40 41 44 46 47 47 48 49 48 45 45 45 46
26 24 26 24 21 18 16 17 22 27 30 26 24 19 18 20 22 22 21 20 22 28 39 43 43 42 41 42 41 40 39 38 40 43 45 47 47 47 47 44 42 40 39 41
21 25 27 24 22 19 22 15 19 21 26 26 23 10 16 21 25 27 28 28 28 28 30 40 42 41 42 42 41 39 37 35 38 40 44 48 48 45 42 39 36 33 33 35
26 28 26 25 24 23 19 29 26 23 17 12 24 11 13 15 19 30 31 34 34 35 34 39 41 41 42 42 42 39 36 34 33 37 39 41 41 39 36 35 33 32 31 31
25 27 26 27 29 29 27 30 27 25 21 21 18 18 11 19 15 20 26 34 36 37 38 40 41 41 41 42 42 39 34 32 32 33 36 36 34 34 33 32 31 31 30 29
30 33 32 31 32 31 31 26 26 25 23 15 21 19 11 16 20 27 30 32 36 38 40 41 41 41 41 42 42 39 33 31 30 30 31 32 33 32 30 29 28 27 26 24
27 29 32 32 28 30 28 24 17 16 13 18 25 23 14 22 25 28 31 33 36 38 39 40 40 41 41 41 42 40 36 33 30 28 27 28 29 29 28 27 26 25 24 22
24 18 28 32 29 25 27 24 23 12 11 19 25 20 20 27 34 30 33 35 37 37 39 40 41 41 41 41 42 40 38 35 31 26 25 27 27 27 26 26 25 23 22 22
23 27 33 33 32 31 27 25 25 22 23 18 18 19 23 27 29 28 34 36 37 38 39 40 41 41 41 40 41 41 38 37 33 27 24 23 23 24 24 25 25 23 22 19
26 26 31 33 34 33 29 29 23 24 12 12 18 18 23 24 29 29 30 32 34 37 38 39 40 40 40 40 40 42 41 37 34 26 22 21 21 22 22 22 22 22 20 19
28 26 30 32 30 27 29 28 27 24 24 18 10 9 22 25 28 28 28 30 31 34 36 38 39 39 39 39 39 40 41 39 36 30 22 21 21 22 21 21 22 22 20 17
31 27 27 26 31 32 31 28 24 18 20 22 20 13 21 25 30 31 30 32 33 34 34 35 37 37 37 38 38 38 39 40 39 34 26 21 21 22 22 21 22 22 20 17
31 26 24 24 28 31 30 30 28 24 24 22 14 6 18 24 28 28 26 25 26 28 31 33 34 35 36 37 37 37 38 39 40 37 30 24 22 22 21 21 22 22 20 18
31 28 23 14 20 28 28 30 29 25 23 20 18 15 16 19 21 25 25 25 24 25 26 27 30 32 34 36 36 37 37 38 39 38 34 28 24 23 21 22 22 22 20 18
28 23 23 23 24 26 27 29 29 27 25 19 17 20 19 23 24 25 24 22 21 21 22 24 27 28 30 34 36 37 37 38 39 39 36 32 28 25 23 22 23 22 20 18
31 23 24 21 23 23 21 21 25 28 27 26 25 23 25 24 23 20 19 18 20 20 22 24 25 27 30 32 34 36 37 38 39 39 37 35 31 27 24 23 23 22 21 19
27 25 22 13 19 19 13 17 20 22 26 24 20 20 24 20 19 20 19 20 20 21 24 25 25 26 28 30 33 34 36 37 38 39 38 37 34 30 26 24 23 22 21 19
27 25 24 19 18 -0 4 19 21 21 22 25 24 23 23 22 21 21 20 20 21 21 23 24 25 28 31 33 34 36 36 37 37 38 39 38 35 31 28 24 23 22 21 19
27 25 21 16 12 11 10 17 19 18 8 19 22 21 19 19 20 19 20 19 21 23 24 25 28 30 32 33 34 36 37 38 38 38 38 38 36 32 28 25 23 22 21 19
28 26 21 19 11 -8 1 14 21 20 4 14 21 19 19 21 18 18 22 24 24 25 25 26 28 31 32 31 34 36 37 38 38 38 38 38 36 33 29 27 24 23 21 19
25 26 22 21 19 15 16 21 21 6 4 18 19 21 21 21 21 23 25 26 26 26 26 28 30 31 31 32 34 34 35 36 37 38 38 36 34 31 30 27 24 23 20 18
21 22 22 23 20 9 23 22 15 16 23 24 22 22 22 25 27 27 27 27 26 25 27 28 28 29 31 32 32 32 32 34 34 35 35 33 32 30 27 25 23 21 19 17
15 21 19 21 18 21 24 22 23 25 24 24 23 21 24 27 28 28 28 27 26 26 28 28 29 29 30 30 31 30 30 31 31 31 31 30 29 27 24 22 20 17 15 15
18 22 20 18 20 22 21 23 25 25 25 24 23 24 26 27 29 29 28 27 27 28 29 29 29 29 28 30 32 31 30 29 28 28 28 26 24 22 20 19 17 16 15 14
17 21 19 19 18 20 20 23 27 27 25 24 24 25 27 29 29 28 28 28 28 29 29 30 29 29 30 32 32 32 29 27 27 26 25 23 22 22 18 17 16 14 14 13
20 17 15 14 20 25 25 25 27 24 22 23 24 26 26 28 28 28 28 28 28 28 29 29 29 30 31 32 32 32 29 26 25 24 23 22 20 20 18 16 15 19 19 20

GFSCGP_sfc_30mbdewp_129.txt.gz
Dewpoint
29 21 21 19 21 20 18 20 18 23 27 22 17 16 14 17 19 18 14 15 21 32 37 41 42 42 43 42 42 41 40 40 41 44 45 47 47 48 48 48 44 43 43 44
26 21 24 21 18 19 18 18 20 24 26 24 20 19 16 15 17 19 17 14 15 23 32 40 43 43 42 42 42 41 40 39 40 43 46 47 47 48 47 44 41 37 38 38
25 24 26 19 17 15 16 17 21 24 24 23 19 11 10 12 13 17 19 19 18 20 24 33 41 42 42 42 43 41 39 38 39 42 44 47 48 46 43 40 36 34 33 34
24 26 23 22 23 22 18 23 21 20 17 14 19 13 12 11 19 22 23 26 26 28 29 29 36 41 42 43 43 41 39 37 35 38 40 43 43 41 37 35 34 33 31 31
26 25 23 25 28 27 26 25 22 18 18 17 15 17 5 17 12 16 22 28 32 34 36 34 38 41 42 43 43 42 38 36 34 35 37 38 37 36 35 33 33 32 30 28
29 32 31 29 29 29 27 23 22 20 20 16 19 16 9 14 18 25 29 27 35 36 38 39 40 42 42 43 43 43 39 35 33 33 33 34 35 34 32 31 29 28 26 25
26 29 31 31 26 29 27 20 23 20 11 18 24 19 9 20 24 27 31 31 35 37 38 40 41 41 42 42 43 42 40 35 33 31 30 30 30 30 29 28 26 26 24 24
25 21 29 31 28 22 25 24 29 18 12 22 23 18 21 26 30 31 30 34 36 37 39 39 41 42 42 42 43 42 40 38 36 32 28 27 28 28 27 27 26 25 23 22
23 27 32 32 30 30 24 24 25 23 20 17 19 20 22 26 29 28 32 35 35 37 38 39 40 41 42 43 42 42 41 40 38 34 28 24 24 25 25 26 26 25 24 22
24 25 29 32 32 31 29 27 22 25 16 12 19 17 24 27 30 28 30 31 32 35 37 39 40 41 42 42 41 41 42 40 37 35 28 24 21 23 24 24 23 23 23 22
25 23 28 30 27 23 26 25 25 23 22 20 5 15 20 26 28 28 27 28 30 31 33 35 37 39 39 40 40 40 41 41 37 34 29 22 20 21 22 22 22 23 22 20
29 25 24 25 31 32 30 25 20 16 19 19 18 14 21 26 30 30 27 24 25 29 32 33 34 35 36 37 38 38 38 40 40 37 32 25 21 21 22 22 22 22 22 21
29 25 23 23 27 30 29 27 26 24 23 21 14 11 22 27 23 21 23 22 22 21 21 22 25 28 33 34 35 37 37 38 39 40 37 31 24 22 22 22 22 22 22 21
32 26 25 18 24 26 26 27 27 23 22 18 17 12 16 18 20 22 21 21 20 19 19 21 23 24 27 30 33 35 36 37 38 40 39 37 30 25 23 22 23 23 23 21
29 24 23 22 23 25 27 28 28 25 25 20 17 17 16 20 21 20 18 17 16 18 20 22 23 25 26 27 30 34 36 36 37 38 39 39 36 30 25 24 23 23 23 22
28 23 22 20 21 20 18 19 25 28 25 24 22 20 21 21 18 18 18 17 18 19 20 21 24 25 25 27 29 31 34 36 37 38 38 40 38 35 29 26 25 24 24 22
24 24 21 13 17 17 11 14 16 19 23 23 20 18 22 19 19 20 19 19 18 19 21 22 23 24 26 28 31 32 33 34 35 37 38 39 39 37 33 29 26 25 24 23
25 22 23 21 17 3 8 17 18 16 18 20 21 20 21 20 19 20 20 20 19 22 22 23 24 26 27 29 32 34 35 36 36 37 37 39 39 38 35 31 28 26 25 23
27 21 20 19 12 10 11 15 18 19 11 18 21 21 18 19 21 19 21 22 23 24 25 26 25 26 28 29 31 32 34 36 37 38 38 39 39 39 38 33 29 27 25 24
28 26 21 17 12 -1 9 18 20 19 8 19 20 19 21 21 18 17 21 26 26 27 27 26 27 28 28 29 31 32 34 36 37 38 39 40 40 39 39 35 31 28 25 24
23 23 20 18 17 15 14 20 21 9 11 20 23 22 21 19 18 20 27 27 27 28 26 27 28 28 29 30 32 32 33 33 34 36 38 39 39 39 38 36 32 30 26 25
21 21 20 20 19 12 22 20 15 19 23 24 22 21 19 20 22 26 29 29 28 27 28 28 29 29 30 30 30 30 30 31 31 33 34 35 36 36 34 34 32 28 24 22
16 19 17 19 18 21 23 21 23 25 22 23 22 21 22 24 25 28 29 29 28 28 29 29 29 29 28 27 28 30 31 31 31 30 31 31 32 32 32 30 28 23 22 21
17 23 18 18 20 23 23 23 25 24 24 24 24 24 24 26 27 28 28 28 28 28 28 29 29 28 28 30 31 32 32 32 30 29 29 29 28 28 27 26 25 22 20 19
18 20 18 18 19 19 21 25 24 23 23 22 23 25 25 26 26 26 26 27 27 28 29 29 29 30 30 31 31 32 33 31 29 28 27 26 25 25 24 22 21 20 19 19
19 17 16 14 19 23 22 23 24 22 21 23 23 24 24 25 25 25 25 25 26 27 28 28 29 30 30 30 31 32 33 31 28 27 27 26 24 23 23 21 20 21 21 20

GFSCGP_sfc_30mbdewp_135.txt.gz
Dewpoint
30 26 25 25 26 24 21 23 22 24 24 19 20 18 17 17 17 16 16 19 26 31 36 41 43 43 43 43 42 42 41 40 41 44 46 48 47 47 47 41 37 38 37 38
30 24 25 26 26 24 21 23 23 25 25 23 19 18 20 19 19 17 16 16 18 28 34 41 42 43 43 43 43 42 41 40 41 43 46 48 47 47 46 38 35 36 35 35
28 25 25 22 22 18 21 22 23 20 23 22 18 14 16 22 20 20 19 18 18 22 33 41 42 42 43 43 43 43 41 39 39 41 43 48 47 48 44 38 36 33 33 33
23 24 23 22 24 25 19 24 24 20 16 9 18 7 16 15 18 20 20 20 20 25 35 42 43 43 43 43 43 43 41 39 38 38 41 42 44 44 39 37 35 33 30 29
27 26 27 24 26 28 21 24 22 20 18 13 13 4 -1 17 14 17 20 22 24 27 28 33 42 44 44 44 44 43 42 39 37 36 38 39 38 37 37 35 34 34 31 28
30 32 30 28 28 27 25 22 26 28 21 7 17 11 12 16 20 28 28 30 34 36 37 38 39 43 43 44 44 44 42 39 37 35 35 36 38 36 34 33 33 31 30 29
29 30 31 31 23 26 25 22 9 -4 -0 2 24 14 10 25 29 29 32 35 36 37 38 39 40 41 42 43 43 44 43 41 37 34 34 34 35 35 33 33 30 29 28 27
20 19 30 31 27 22 26 29 3 -5 -1 13 22 11 12 28 31 32 34 36 37 38 39 39 40 41 42 42 43 44 43 42 39 35 33 33 32 32 32 31 30 29 27 27
23 24 32 32 31 28 21 24 26 18 21 16 15 21 26 30 30 30 34 35 36 37 38 39 40 42 42 43 43 43 44 43 41 37 34 32 30 30 30 30 29 29 28 27
26 24 30 30 32 28 25 26 13 21 7 4 21 19 20 27 27 33 31 30 31 34 36 38 39 40 42 43 43 44 44 43 43 41 38 33 30 28 29 29 28 28 28 28
27 26 28 29 27 21 24 22 25 23 24 18 16 18 25 29 31 27 28 29 30 31 32 34 35 37 40 42 43 43 43 43 43 42 41 37 31 27 27 26 26 27 27 26
28 28 23 26 30 31 30 26 21 15 17 20 18 16 28 29 28 25 23 22 22 22 21 22 23 24 25 34 40 42 42 42 42 42 41 39 36 29 25 24 25 25 25 25
30 26 21 20 24 29 24 26 26 24 24 18 9 14 28 29 27 23 21 20 19 19 21 23 24 24 25 26 31 38 39 40 40 41 41 40 36 32 27 23 23 23 23 24
33 27 22 6 15 24 21 25 26 23 19 19 20 14 26 28 21 20 18 18 19 19 21 23 23 24 25 26 28 29 32 36 38 39 40 40 40 36 31 25 23 23 23 23
28 24 22 22 24 26 26 25 26 24 23 15 20 16 23 24 20 18 19 19 20 20 23 23 24 24 25 26 28 30 32 33 36 37 38 39 40 40 37 31 26 24 24 23
27 21 21 16 20 19 18 22 27 26 26 25 25 24 24 19 19 20 20 19 20 22 24 24 25 26 26 27 28 30 32 34 35 35 35 37 38 39 40 38 32 27 24 24
24 21 19 12 16 16 4 12 19 27 28 26 21 23 22 20 19 19 21 22 23 24 25 26 27 27 26 27 29 30 33 34 34 34 35 37 38 38 39 40 37 32 28 25
24 23 22 18 16 -12 0 17 18 21 27 26 24 22 20 19 22 23 25 24 25 27 27 27 27 27 28 29 30 31 32 32 33 34 35 36 38 39 39 39 39 37 32 28
27 22 21 9 13 10 11 12 16 17 17 20 21 21 20 22 22 21 25 28 28 28 28 28 28 28 29 30 30 31 31 32 32 32 33 35 37 37 38 38 39 39 34 30
27 26 18 18 3 -0 11 16 20 16 4 20 20 19 21 21 16 19 23 29 30 30 29 29 29 29 30 30 30 30 30 30 30 32 33 34 34 34 35 36 38 38 36 34
20 20 17 19 16 15 17 19 20 1 2 20 22 22 21 19 20 22 26 29 30 30 30 30 30 29 30 30 29 28 30 30 31 33 33 32 32 32 33 35 36 36 36 33
14 16 15 18 15 4 21 19 11 17 23 23 22 21 19 21 23 26 28 29 29 28 29 29 29 29 30 30 29 29 30 31 32 33 33 31 30 30 31 32 33 33 33 33
16 20 19 19 16 23 22 22 24 24 22 22 21 23 23 23 25 27 28 27 27 27 28 28 29 29 29 29 30 30 30 31 32 32 32 31 30 29 29 29 30 30 29 29
19 22 20 18 20 22 23 25 23 23 22 23 23 23 24 24 26 26 26 25 26 26 26 27 28 26 26 27 28 29 29 30 31 32 32 31 29 29 29 28 28 28 27 26
16 20 18 20 21 23 24 24 23 23 23 23 24 24 25 25 25 25 24 24 24 25 25 26 26 26 25 26 26 28 28 29 30 31 31 30 29 29 28 27 26 26 26 26
20 17 15 13 20 19 21 24 23 21 22 23 24 24 25 25 24 24 23 24 24 24 25 24 23 24 24 24 25 26 27 28 28 29 30 30 30 29 29 28 27 27 29 29

GFSCGP_sfc_30mbdewp_141.txt.gz
Dewpoint
38 28 27 26 26 24 23 19 18 22 23 22 20 17 20 20 22 22 23 25 29 33 38 42 43 43 42 42 42 42 41 40 41 44 48 47 46 47 44 38 37 36 36 35
36 26 27 27 25 24 21 19 20 24 23 21 21 18 18 19 19 20 21 22 24 27 34 39 43 42 42 41 42 42 41 41 40 43 45 47 47 47 45 38 35 35 34 33
32 26 28 26 24 23 23 17 21 19 22 20 19 19 19 20 19 18 19 19 20 23 27 33 40 42 42 42 42 42 42 41 40 41 43 47 47 47 43 38 37 34 32 31
32 25 24 25 24 22 20 24 23 21 18 12 17 3 14 19 20 21 19 18 18 18 20 26 36 41 42 42 43 43 43 41 39 40 41 44 46 45 45 41 37 34 30 28
30 25 23 24 24 24 21 25 22 19 15 14 15 9 9 17 16 17 20 21 20 20 23 24 34 40 42 43 43 43 43 41 40 38 38 40 41 42 41 39 36 34 33 29
31 32 30 28 28 26 26 21 18 16 16 7 12 10 2 13 16 24 27 22 22 30 30 35 40 43 42 43 43 43 43 42 41 38 36 37 39 39 38 37 35 34 34 32
28 28 31 30 24 25 22 17 11 10 9 8 23 11 7 21 28 26 28 31 35 37 37 38 37 40 43 43 43 43 43 43 42 39 37 35 35 37 38 36 35 34 33 31
20 21 29 32 27 22 21 14 9 6 5 10 21 9 7 26 32 34 34 35 36 37 38 38 39 40 41 43 43 43 43 43 43 41 39 36 35 35 36 37 36 34 33 31
21 22 30 31 31 26 22 19 22 17 20 14 17 16 23 29 30 32 34 35 35 36 38 38 39 40 41 41 42 43 43 43 43 43 41 38 35 34 34 34 35 34 33 31
24 21 30 28 29 27 22 26 19 19 6 2 14 16 11 27 28 30 33 33 34 36 37 37 37 37 37 39 41 43 43 43 43 43 43 41 38 35 33 32 32 31 31 30
28 23 26 26 25 21 21 19 24 22 19 9 8 8 23 26 28 30 32 30 29 31 32 30 25 25 26 27 31 38 42 43 43 43 43 42 41 38 35 33 31 31 30 29
29 25 19 22 30 31 29 21 22 12 12 20 16 14 24 29 29 32 28 29 25 26 23 23 24 25 26 27 29 30 35 39 42 43 43 42 42 41 39 36 33 31 30 29
29 23 15 14 18 26 25 27 23 22 20 17 12 8 27 31 30 28 25 21 19 21 22 23 24 24 25 27 28 30 32 33 36 38 40 40 40 41 40 39 37 33 31 29
30 26 14 6 11 20 21 24 25 22 18 16 14 15 26 28 26 23 21 18 19 21 23 24 24 25 26 27 28 29 31 33 35 36 36 36 36 38 39 39 38 36 33 30
27 24 23 22 23 25 23 21 25 22 18 9 12 17 23 28 26 22 19 19 20 22 23 24 26 27 27 27 28 30 32 32 33 32 32 33 35 36 37 38 39 38 35 31
26 22 20 19 19 17 17 21 25 25 23 20 21 18 21 27 25 19 18 19 20 22 24 25 27 27 27 28 29 30 31 31 32 31 32 33 34 35 35 36 37 38 38 36
23 20 18 14 17 13 8 9 19 26 26 23 20 21 24 25 22 19 20 20 21 23 25 26 28 27 27 28 29 30 30 31 31 31 32 32 33 33 34 35 34 34 35 36
23 19 19 11 8 4 7 17 17 25 27 26 25 24 23 23 22 22 23 22 23 26 27 27 27 28 29 29 30 30 30 30 30 31 31 32 33 33 33 33 32 32 34 34
24 20 14 6 3 3 9 14 13 13 5 24 27 24 21 23 22 22 26 27 27 28 29 28 29 29 29 29 30 30 29 30 30 30 31 32 33 32 32 31 31 32 32 33
24 21 13 15 -3 -17 3 14 18 16 5 16 27 22 21 21 19 19 23 27 29 30 30 29 30 29 29 29 30 28 27 27 25 28 30 31 32 32 31 31 31 31 32 32
21 21 15 15 9 7 11 18 19 -0 -7 20 23 21 22 20 20 21 24 28 29 29 29 30 29 28 28 29 28 25 25 21 26 28 29 29 30 30 30 30 30 30 30 30
12 11 14 16 11 -7 19 19 11 9 21 22 22 22 22 20 22 25 27 28 28 27 27 27 26 26 27 26 26 23 20 23 26 27 26 26 27 28 29 29 29 29 29 28
11 11 10 12 5 14 20 16 20 22 22 22 21 21 21 21 23 26 27 26 26 25 24 25 25 24 22 22 23 21 21 24 25 25 23 24 26 27 27 28 29 29 28 28
20 21 18 19 19 20 22 23 23 23 23 22 22 22 21 21 25 26 25 24 23 23 23 24 22 18 18 20 22 23 23 24 24 23 23 24 25 26 27 29 29 29 28 28
15 21 20 20 20 21 23 24 23 23 23 22 23 23 22 24 25 24 23 22 22 22 22 22 19 18 17 19 19 21 22 23 22 23 24 25 25 25 26 28 29 30 30 29
20 17 15 14 17 19 19 22 24 22 22 22 23 24 25 25 24 23 21 22 21 21 22 19 18 18 18 19 18 20 21 22 23 23 24 24 25 26 27 28 29 30 32 32

GFSCGP_sfc_30mbdewp_144.txt.gz
Dewpoint
38 34 29 27 29 24 21 20 21 22 23 23 19 19 22 23 26 27 27 27 30 33 38 42 43 43 42 42 42 42 41 41 41 44 47 47 46 46 46 39 37 35 35 34
35 31 27 27 26 22 20 19 22 22 23 22 20 18 20 21 23 24 25 25 26 29 35 40 42 42 42 41 42 42 41 41 41 43 45 47 46 46 46 40 35 35 33 31
32 34 31 26 25 20 20 17 20 20 21 19 21 20 18 20 20 20 21 22 23 25 28 34 41 42 42 41 41 42 42 41 40 42 43 47 47 46 45 41 38 35 32 30
34 32 27 25 23 22 17 21 21 21 18 13 17 6 14 20 20 20 19 19 19 20 23 28 35 41 42 42 42 42 43 42 40 40 41 42 44 44 45 44 39 36 32 28
32 30 24 24 24 24 22 24 21 18 15 15 15 8 9 16 18 19 20 21 20 19 20 20 25 36 42 43 42 43 43 43 41 39 39 39 40 43 43 41 40 36 34 31
33 33 31 28 28 26 25 18 17 17 15 5 14 10 4 13 15 19 24 22 22 22 28 33 38 39 41 43 43 43 43 43 42 40 38 37 37 38 39 39 37 36 35 34
32 28 31 29 24 25 21 17 12 11 8 6 21 11 7 14 28 26 25 27 29 34 34 36 37 41 42 42 43 43 43 43 42 42 39 37 36 36 37 38 37 36 35 33
27 24 28 32 26 23 20 15 11 7 7 9 21 9 7 19 32 33 33 35 36 36 37 38 39 40 41 43 43 43 43 43 43 42 41 39 37 36 35 36 37 36 35 34
23 23 30 31 30 25 21 18 18 14 18 13 16 17 19 28 31 34 35 36 36 37 38 38 39 40 40 41 41 42 42 43 43 43 43 42 39 37 36 35 35 36 35 34
23 23 29 28 29 26 23 25 18 18 7 3 11 14 10 26 28 31 33 33 35 36 37 37 35 30 29 29 34 40 42 42 43 43 43 43 42 40 37 35 34 33 33 32
27 22 25 25 24 21 21 20 22 20 17 5 5 7 22 24 28 29 32 33 33 34 33 26 25 25 26 28 29 32 37 40 42 42 43 42 42 41 39 37 35 34 33 32
29 24 19 22 30 31 29 19 19 12 11 19 14 11 26 28 29 31 32 29 29 31 24 23 24 25 26 28 29 31 32 34 36 39 41 42 42 41 41 40 38 36 35 33
28 21 16 15 19 26 24 26 22 20 20 17 12 7 27 30 30 32 28 25 22 22 23 23 24 24 26 27 27 28 31 33 35 36 37 37 37 38 38 39 39 39 36 35
30 24 13 13 13 20 20 24 24 21 14 12 12 12 25 28 29 27 24 20 19 21 22 23 24 26 26 27 28 29 31 33 33 33 32 32 33 35 36 37 38 38 37 36
28 23 22 22 23 25 22 21 25 21 18 10 9 15 18 27 27 25 22 18 19 21 23 24 25 26 26 27 28 30 31 31 32 31 31 31 33 34 35 35 36 37 37 37
25 22 20 20 19 17 18 22 23 24 23 19 19 17 21 24 27 23 20 19 19 21 23 25 26 27 26 27 29 30 30 30 31 31 31 32 33 33 33 34 34 34 33 34
23 21 21 17 17 13 10 12 19 24 25 22 18 18 23 24 27 23 19 19 20 21 24 25 26 27 27 28 29 29 30 30 30 31 31 32 32 32 32 33 32 32 32 33
21 18 18 8 6 4 9 15 15 22 25 25 23 23 22 22 25 22 20 20 21 23 25 27 28 28 29 29 29 30 30 30 29 29 29 30 31 31 31 31 31 31 31 31
23 19 13 5 4 3 3 12 14 14 6 23 25 25 23 23 22 21 24 23 23 26 28 28 29 29 29 29 30 29 27 26 24 25 26 27 29 29 29 28 29 29 30 30
23 20 12 13 -1 -13 -1 13 17 15 1 10 26 25 22 21 23 21 24 27 28 29 30 29 30 29 28 28 29 25 23 21 20 24 26 27 28 28 27 27 28 29 30 30
22 21 16 14 7 4 8 17 18 -2 -6 17 25 24 22 20 21 22 25 28 29 29 29 30 29 27 27 27 26 20 20 17 23 26 26 25 25 25 26 27 28 28 28 28
15 12 13 15 7 -11 17 19 10 9 19 22 23 23 22 21 23 25 26 28 28 28 28 27 25 24 25 24 22 18 16 20 23 24 23 23 23 24 26 27 27 27 28 28
10 10 8 13 4 10 19 17 18 20 21 22 22 22 22 22 23 26 27 27 27 26 24 25 23 20 19 20 21 17 16 21 23 22 21 22 24 25 26 26 27 27 28 28
20 20 14 18 17 18 18 22 22 23 22 23 22 22 22 21 24 26 26 25 23 23 22 22 19 15 14 17 19 20 20 22 22 21 22 23 24 26 26 26 27 28 28 28
16 21 19 19 20 20 21 23 23 23 23 22 23 22 21 23 25 25 24 22 22 21 22 20 17 16 15 18 18 19 20 21 21 22 23 24 24 25 25 26 27 28 29 30
20 17 16 14 17 18 18 22 24 23 22 22 22 23 25 25 25 23 21 22 21 20 20 16 17 17 16 18 17 18 20 21 21 22 23 24 25 25 26 26 27 28 29 30

GFSCGP_sfc_30mbdewp_147.txt.gz
Dewpoint
38 34 32 33 30 26 22 23 22 22 23 21 22 24 27 28 30 31 30 30 31 33 36 41 44 44 43 43 43 42 42 41 42 45 47 47 47 47 47 41 38 36 35 35
35 32 34 32 28 23 22 23 22 22 22 22 19 20 23 24 27 28 28 28 29 31 35 40 43 43 43 42 42 42 42 41 41 43 45 47 47 47 47 44 37 36 34 33
32 34 36 29 24 21 21 23 22 21 20 21 21 19 20 21 22 23 25 26 27 28 31 36 41 42 43 42 42 42 42 42 41 42 44 47 47 47 46 43 41 38 34 32
34 36 32 26 23 21 18 21 22 20 19 18 17 17 16 20 21 21 21 22 23 24 27 31 37 41 42 42 42 42 43 43 42 42 42 42 43 43 45 45 42 39 34 31
32 33 30 25 25 23 20 24 21 17 15 16 16 8 9 17 19 21 21 21 20 21 22 23 29 36 42 43 43 43 43 44 42 41 41 40 40 42 44 43 41 41 37 35
35 36 32 28 27 25 21 18 17 17 15 8 15 10 3 12 17 19 20 21 22 21 21 27 29 30 37 43 43 43 43 43 43 41 40 39 39 39 39 39 39 39 38 37
33 29 31 29 24 25 19 17 12 9 7 6 20 10 6 9 27 26 24 25 23 27 32 36 39 40 41 41 43 43 43 43 43 42 41 40 38 38 38 38 38 38 38 36
28 25 28 31 25 22 19 16 10 4 5 8 20 8 6 16 33 33 31 32 35 36 37 38 39 40 42 42 43 43 43 43 43 43 43 42 40 39 38 37 37 37 37 37
22 25 30 31 30 25 22 18 17 14 17 10 15 16 17 25 32 33 34 35 35 36 37 39 40 40 40 41 41 42 43 43 43 43 43 43 42 40 39 38 37 37 37 36
23 24 29 28 28 26 22 23 17 17 6 0 11 13 8 22 29 33 34 34 36 37 37 37 33 29 27 29 32 37 41 42 42 43 43 43 43 42 41 39 38 37 36 35
25 23 25 26 24 21 23 20 21 20 17 4 5 7 19 21 29 31 33 34 35 36 34 26 25 26 28 29 30 32 35 37 39 41 42 42 42 42 42 40 39 38 36 35
28 23 20 23 30 31 27 19 17 11 12 18 11 8 24 28 28 31 32 33 33 33 25 24 25 26 27 28 28 30 32 33 35 38 39 40 40 40 40 40 40 40 38 37
27 20 18 17 19 26 24 26 20 18 20 16 10 7 27 29 29 31 32 29 30 26 23 23 24 24 26 27 27 29 32 34 35 34 34 33 34 34 35 36 37 38 38 38
28 21 16 15 15 21 20 24 22 19 12 10 13 10 22 28 29 31 29 24 24 22 23 23 24 25 26 27 28 30 31 32 32 31 31 31 32 33 34 35 36 36 37 37
28 22 21 20 24 24 21 20 24 19 16 10 8 12 14 27 29 29 26 21 19 21 22 23 24 26 26 27 29 30 30 30 31 30 31 32 33 34 34 34 34 34 34 34
25 22 21 20 19 18 19 21 22 24 22 18 18 16 19 22 29 26 23 19 19 21 22 23 25 27 26 27 29 30 29 30 31 31 31 32 32 32 32 33 33 32 32 32
23 21 21 16 17 14 11 14 20 23 24 20 15 16 20 22 28 26 23 19 19 20 22 24 26 27 27 28 29 29 29 30 30 30 30 29 30 29 30 30 30 28 29 30
20 17 17 9 7 6 10 14 16 21 23 24 22 22 21 21 26 26 22 20 19 20 23 25 27 27 29 29 29 30 30 29 27 25 25 26 27 26 27 27 25 26 27 28
22 18 13 6 5 5 4 9 13 12 6 19 24 24 24 23 23 23 21 21 21 23 26 27 28 29 29 29 29 28 25 24 21 22 23 24 25 24 24 23 24 26 27 27
22 17 13 12 3 -3 -7 12 17 15 0 9 20 25 23 22 21 23 23 24 26 28 29 29 29 29 28 28 27 22 19 18 17 21 23 25 25 24 23 24 25 27 27 27
21 20 17 13 7 6 5 16 17 -2 -5 14 23 26 23 22 24 23 26 27 29 29 29 29 29 27 26 26 24 18 18 14 20 23 24 23 23 23 24 25 26 27 27 28
18 15 15 14 8 -1 14 18 8 8 16 21 23 24 22 21 23 25 27 28 28 29 29 28 26 24 24 23 20 15 12 17 21 22 22 21 22 23 24 26 26 26 27 27
10 10 7 12 6 7 18 17 17 19 19 21 23 23 22 23 24 26 27 27 27 27 26 25 22 19 18 19 19 13 13 19 21 21 20 21 23 24 25 25 25 25 26 27
19 18 12 15 15 16 16 20 21 22 22 22 22 23 22 22 25 26 26 26 25 24 22 21 17 14 12 15 17 18 18 19 20 19 20 22 23 25 25 25 25 25 25 25
16 20 18 17 18 20 21 22 23 23 23 22 22 22 22 23 25 26 25 24 22 22 21 19 15 14 13 16 17 18 18 19 19 20 21 21 23 23 24 24 25 26 27 28
20 18 17 14 18 16 18 21 24 23 23 23 22 22 23 24 25 25 23 22 21 20 19 15 15 16 16 17 18 18 19 19 20 20 21 22 24 24 25 25 25 26 27 28

GFSCGP_sfc_30mbdewp_150.txt.gz
Dewpoint
39 34 31 33 36 30 24 23 20 23 24 26 29 28 30 33 34 35 36 37 38 38 39 43 45 45 44 43 43 43 42 42 43 45 44 45 45 47 48 44 40 37 35 35
35 32 35 37 37 30 24 23 21 24 24 25 28 28 30 31 32 33 34 34 35 35 36 40 44 45 44 43 44 43 42 43 42 43 44 45 46 47 47 47 41 38 35 33
33 35 37 34 35 28 23 21 23 24 23 23 26 25 26 28 28 29 31 32 31 33 34 37 42 44 44 44 44 44 43 43 43 43 45 46 47 47 47 46 44 41 37 34
34 37 36 34 33 29 22 23 24 24 23 21 21 25 24 25 26 26 28 28 29 30 32 35 40 43 44 44 45 44 44 44 44 44 44 44 43 42 44 46 46 44 39 35
32 33 34 33 31 24 23 24 24 24 23 22 19 21 19 22 23 25 25 26 27 27 29 30 36 41 43 45 45 45 44 45 44 44 43 43 43 42 42 43 44 44 43 39
35 39 36 30 27 26 23 22 22 21 20 22 20 15 14 17 21 23 25 25 25 24 24 26 27 33 39 45 46 45 44 45 45 44 43 43 43 42 41 40 40 41 41 41
34 33 31 31 23 23 21 21 21 20 16 20 19 13 9 14 21 23 24 24 25 24 23 30 35 32 34 41 44 45 44 44 45 44 44 43 43 42 42 41 40 39 39 39
29 26 29 31 26 21 20 20 19 18 17 17 19 13 13 15 32 32 28 27 28 29 33 37 40 41 41 42 44 44 44 44 44 44 44 44 44 43 42 42 41 40 39 38
29 27 30 30 30 25 19 19 19 16 17 13 15 16 19 27 32 31 31 31 33 35 38 40 41 42 43 44 44 44 44 45 44 44 44 44 44 44 43 43 42 41 40 39
24 24 29 28 28 26 23 22 18 21 8 4 12 14 13 21 29 31 33 33 36 38 39 40 39 37 34 35 37 40 42 42 43 43 43 43 43 44 43 43 42 42 41 40
25 24 26 26 26 22 22 22 22 21 18 4 2 2 21 23 29 31 32 35 36 38 38 33 29 28 29 31 32 34 35 37 38 41 42 43 43 44 43 42 42 41 41 40
27 24 23 23 30 30 26 20 18 13 16 17 12 8 22 27 28 32 33 35 36 36 31 27 26 27 28 29 30 31 33 34 36 37 38 38 39 39 38 37 37 37 37 37
27 22 21 19 21 27 24 24 19 19 20 16 13 8 27 29 28 32 33 34 34 32 25 24 25 25 26 27 28 30 32 33 33 33 32 32 33 33 32 33 34 35 35 35
29 20 19 17 18 21 20 24 21 19 16 12 12 10 21 28 28 30 32 31 31 28 24 24 24 25 26 27 29 30 31 31 31 31 31 31 31 33 33 33 34 34 33 33
29 23 22 21 24 23 21 21 23 19 16 12 11 11 14 27 28 30 31 28 28 25 23 24 24 25 26 28 29 30 30 30 30 30 31 32 33 33 32 32 32 32 31 30
26 25 22 21 19 19 19 21 22 22 21 17 17 15 17 21 29 30 29 25 24 23 23 24 25 26 26 27 29 30 29 30 31 31 31 31 29 29 29 28 27 26 25 25
24 24 23 19 17 16 14 16 20 22 23 17 14 12 20 22 28 29 27 24 21 22 22 24 25 26 27 28 29 28 30 31 30 29 26 25 25 24 24 24 22 21 21 22
21 21 21 17 10 10 12 14 17 21 22 23 21 21 21 22 27 29 28 23 21 21 23 25 26 27 28 29 29 30 31 29 25 23 22 23 23 22 22 22 21 20 21 22
22 19 17 12 8 9 4 9 15 15 10 19 23 23 24 24 24 25 26 24 22 22 23 25 27 28 29 29 30 29 26 24 21 21 21 22 23 21 21 21 22 23 24 24
21 17 15 12 7 2 -2 12 17 16 2 10 18 19 24 24 19 18 24 22 23 25 27 28 29 28 28 29 27 23 20 18 17 20 22 22 22 22 21 22 23 25 26 26
22 21 19 14 11 10 7 16 18 2 1 15 22 25 25 24 23 25 24 25 26 28 29 30 29 28 27 26 24 19 18 14 19 23 22 22 21 22 23 24 25 25 24 24
19 18 17 16 13 9 14 18 8 11 18 22 24 26 25 23 25 26 26 28 29 29 30 29 28 27 26 24 20 16 14 17 19 20 20 19 20 21 23 24 24 23 22 21
11 15 9 15 12 11 18 19 18 19 20 22 24 25 24 24 25 27 28 28 29 29 28 27 25 23 20 19 18 13 12 16 17 18 17 17 19 20 22 23 21 20 20 20
18 17 13 13 15 16 16 19 21 22 22 23 23 25 24 24 26 27 27 27 27 26 25 22 18 14 14 15 16 15 16 17 17 16 15 17 18 20 21 21 22 21 20 18
18 19 17 15 17 19 20 22 22 22 23 23 23 24 24 24 26 26 27 26 25 23 21 18 14 13 13 15 16 16 17 17 17 16 16 17 19 20 21 21 21 21 22 22
19 18 17 16 19 17 20 22 24 24 24 24 23 23 24 25 26 26 26 24 22 20 19 16 16 15 16 17 18 17 18 18 18 17 17 18 20 20 22 22 22 23 26 27

GFSCGP_sfc_30mbdewp_153.txt.gz
Dewpoint
39 34 31 31 31 30 31 34 25 19 24 23 25 27 32 35 36 36 38 40 41 41 42 42 44 44 42 41 41 42 42 42 44 45 44 44 45 46 47 45 41 38 37 36
35 32 33 35 35 33 33 33 21 18 24 20 19 28 32 34 35 35 36 38 39 40 40 42 44 44 44 42 43 43 42 42 42 43 44 44 45 46 47 47 43 40 37 35
32 35 37 36 33 32 35 27 21 23 25 20 19 28 31 33 34 34 35 38 38 39 38 41 44 44 45 44 44 44 43 43 43 44 45 46 46 46 46 46 46 43 39 36
34 37 36 34 34 33 26 24 21 22 23 16 24 22 29 30 31 32 33 34 35 36 36 37 41 43 45 45 46 45 44 44 44 45 45 45 44 42 44 46 46 45 42 38
33 34 35 32 33 34 30 24 27 22 20 15 21 22 26 29 28 28 31 32 32 33 34 36 39 41 44 46 47 46 45 45 44 45 45 45 44 43 43 43 44 45 45 43
36 38 37 35 36 32 26 25 26 23 17 19 16 21 23 27 28 28 28 29 30 30 31 33 36 40 43 46 47 47 45 46 46 45 45 45 45 44 42 42 41 42 42 43
35 35 33 33 26 24 23 25 23 22 26 19 19 17 14 24 25 28 27 27 28 28 27 29 29 34 39 45 46 47 45 45 46 46 45 44 45 44 43 43 42 40 40 40
30 27 31 30 27 23 21 26 24 19 17 19 19 18 12 21 26 28 27 27 27 26 25 27 31 31 33 40 45 45 44 44 45 45 45 45 45 45 44 43 43 42 41 40
27 28 29 28 28 25 21 22 23 20 19 17 19 18 20 25 30 27 27 27 27 27 31 37 40 40 40 41 42 43 44 44 44 44 44 44 44 44 44 44 44 43 42 42
26 26 28 27 28 26 23 20 19 24 17 12 16 15 18 21 28 28 29 29 31 33 37 39 40 42 43 43 44 44 44 44 44 43 43 43 43 43 43 43 43 42 42 42
25 24 25 26 26 21 20 19 21 20 18 11 10 14 21 23 26 29 29 32 34 37 38 39 37 34 33 34 35 36 37 38 40 41 42 42 43 43 43 43 41 40 40 39
25 24 23 24 29 29 27 21 19 12 11 14 10 12 23 24 27 30 30 33 35 37 37 33 29 28 29 30 31 32 33 34 36 37 38 39 39 39 37 35 34 34 35 35
29 23 22 20 21 26 24 23 20 19 19 15 13 12 27 28 28 30 32 33 36 35 30 27 26 26 27 27 28 30 32 33 33 33 33 33 32 32 31 32 32 33 33 33
31 22 20 20 20 22 21 22 20 19 18 12 10 10 25 27 26 30 32 34 34 30 26 25 24 25 26 26 28 29 30 31 31 31 31 31 31 32 32 33 32 32 31 30
29 25 22 20 23 23 22 20 21 19 17 14 12 10 15 26 26 30 32 32 31 27 24 24 23 24 26 27 28 29 30 30 30 29 30 32 32 32 30 29 27 26 25 24
28 27 23 21 21 19 19 19 19 21 20 18 15 14 15 25 27 29 30 30 29 26 24 24 24 25 25 27 28 29 29 29 30 30 31 30 27 25 25 23 22 21 20 20
25 26 24 19 18 18 16 16 17 19 21 17 14 16 18 22 27 28 29 28 28 26 24 23 25 26 26 27 28 28 29 30 30 28 24 22 21 20 20 20 19 19 19 19
24 23 24 20 13 12 13 15 18 18 19 20 17 20 20 22 25 29 29 28 25 25 24 24 25 26 27 28 29 30 30 29 25 22 20 21 21 20 20 20 20 19 20 21
24 21 18 16 11 12 9 9 15 16 13 20 21 21 22 24 23 25 29 28 25 23 23 24 26 27 28 29 30 30 28 24 21 19 19 20 21 20 20 21 21 22 22 24
22 21 18 14 10 6 3 12 16 16 6 12 15 16 18 24 18 18 27 27 24 23 24 26 27 28 28 28 29 26 22 18 16 19 21 21 20 20 20 20 21 23 24 24
23 22 19 17 13 12 12 15 18 5 8 18 20 24 23 23 23 25 25 24 24 26 27 28 28 27 28 27 24 20 18 15 19 21 21 20 20 20 20 21 22 23 23 23
18 19 19 18 16 13 14 17 9 14 20 21 25 27 24 25 26 25 26 26 27 28 29 28 28 28 26 24 19 17 14 17 17 18 18 17 16 17 18 20 20 20 19 18
11 16 11 17 15 11 15 19 18 20 20 23 25 27 25 25 26 27 28 28 29 29 28 28 27 25 20 18 14 10 12 14 15 15 14 14 14 16 17 17 18 19 20 19
15 18 13 12 12 15 15 17 20 21 22 23 24 26 25 25 27 27 27 28 28 28 27 25 23 18 15 13 14 13 14 14 14 13 13 13 14 15 16 17 19 20 20 19
18 18 15 14 14 16 19 20 19 20 22 23 24 26 25 26 26 27 27 27 27 25 23 20 15 12 12 13 14 14 15 15 14 13 13 13 15 16 16 17 19 20 21 21
19 17 17 15 19 18 21 22 24 23 24 24 23 24 25 26 26 26 26 25 24 22 18 15 14 14 15 16 16 15 15 15 15 14 16 17 18 18 19 20 20 21 23 25

GFSCGP_sfc_30mbdewp_156.txt.gz
Dewpoint
38 33 29 31 32 31 28 27 27 29 31 34 31 26 30 36 38 39 40 43 44 44 44 42 43 42 40 41 43 43 43 43 46 46 46 47 48 48 48 45 41 39 37 37
35 31 31 32 32 32 31 30 29 30 31 33 30 25 29 35 37 38 40 42 43 43 42 43 44 43 42 42 43 43 43 43 44 45 45 46 46 47 48 46 43 41 38 36
32 33 38 34 35 32 32 30 30 28 32 34 23 23 28 34 36 37 39 42 42 42 41 44 45 44 43 43 44 43 43 43 44 45 46 46 47 47 47 47 46 42 40 37
33 37 36 35 32 33 29 34 35 35 28 22 21 17 31 33 34 35 37 39 41 42 41 44 45 45 45 45 45 45 44 44 45 45 46 46 46 45 46 47 47 45 42 39
33 35 34 33 34 36 32 33 35 34 24 22 18 19 29 32 32 33 35 38 40 40 40 42 44 45 46 47 46 46 45 45 45 45 46 45 45 44 45 45 45 47 46 44
37 38 37 36 34 36 36 29 34 33 27 20 19 19 26 30 32 32 34 35 37 38 38 40 43 45 46 48 48 47 46 46 46 46 46 45 45 44 43 43 42 43 45 45
35 35 35 37 32 34 34 27 26 25 20 18 21 20 22 30 31 31 32 32 33 34 35 37 40 42 45 47 48 47 46 46 46 46 46 45 45 45 44 44 43 42 41 41
30 28 33 32 31 26 24 26 22 16 17 23 21 18 17 29 30 31 31 32 32 32 33 34 38 41 45 47 47 47 46 46 46 46 46 46 45 45 45 44 44 43 42 42
31 28 30 27 27 26 23 26 25 22 28 23 20 19 20 29 27 28 30 30 30 29 30 31 32 33 40 46 47 46 46 45 45 45 45 45 46 45 45 44 44 44 43 43
27 27 28 27 28 27 25 27 24 25 23 18 20 18 20 23 25 28 29 29 28 29 36 39 40 40 41 42 44 45 45 44 45 45 44 44 44 44 44 44 43 43 43 43
27 26 27 26 27 26 24 22 24 24 22 21 16 18 21 23 28 28 29 30 31 37 39 41 42 42 43 44 44 44 43 43 43 43 43 43 43 43 44 43 42 41 39 39
26 24 24 26 28 29 27 22 26 22 20 24 15 17 26 25 30 30 30 33 36 39 40 38 35 34 34 34 35 36 36 37 38 39 40 41 42 41 40 37 34 34 34 34
31 24 24 22 24 26 24 23 21 20 21 21 15 15 28 26 30 30 33 35 38 38 33 30 29 29 30 31 32 33 35 35 35 35 35 35 34 33 32 32 33 33 33 32
31 27 21 23 26 24 22 22 20 20 20 17 11 18 27 26 29 32 34 36 37 32 28 27 27 27 28 29 31 31 32 32 32 32 32 32 32 33 33 33 31 30 29 27
29 26 24 23 23 23 22 20 21 19 20 16 15 14 23 27 29 32 34 35 33 28 26 25 25 26 27 28 29 30 31 31 30 30 32 32 32 31 29 27 25 24 23 22
30 26 25 23 22 20 18 20 19 21 21 19 18 15 26 27 30 32 33 33 30 26 25 25 25 26 27 28 29 30 30 29 30 32 32 30 26 25 23 22 21 20 20 20
26 26 25 23 18 19 16 17 19 20 21 19 15 18 21 27 29 30 31 31 29 25 24 24 25 26 27 28 30 29 30 30 31 28 24 22 21 21 21 21 20 20 19 20
25 24 25 22 16 13 15 15 18 18 19 21 20 20 22 23 28 30 31 30 29 25 24 25 26 26 27 29 30 31 31 30 26 22 21 22 21 20 21 21 21 21 22 22
25 23 20 17 15 14 13 9 14 17 15 19 20 21 23 23 23 24 30 29 28 26 25 25 27 28 29 30 31 31 29 24 22 20 21 21 21 20 20 21 21 22 23 24
24 23 21 18 12 9 5 12 16 15 8 11 15 16 17 24 20 23 29 27 25 25 25 27 28 29 29 30 30 28 24 20 20 20 22 21 21 21 20 21 21 23 24 24
23 23 20 19 17 16 14 15 18 5 10 19 22 25 24 24 25 25 25 24 26 27 28 28 28 28 29 28 26 23 19 18 21 21 21 21 20 20 19 19 21 22 22 23
21 21 21 20 17 14 16 16 9 16 20 22 26 27 25 26 25 25 26 27 28 29 29 28 29 28 26 23 21 18 17 18 18 18 17 17 17 16 17 18 19 19 20 20
10 17 15 19 19 13 17 19 18 21 22 23 27 26 26 26 27 28 28 29 29 29 29 29 27 24 21 16 15 13 14 15 15 14 14 14 14 15 15 16 16 18 20 21
15 17 14 11 13 15 14 17 20 21 23 24 26 26 26 27 28 28 29 29 29 28 28 26 21 17 15 14 13 14 15 14 14 14 13 14 14 16 16 16 17 19 20 20
18 18 14 14 15 16 18 19 19 21 23 23 25 26 27 27 28 28 28 28 27 25 23 20 17 14 13 14 14 15 15 15 14 14 14 14 16 17 18 18 19 20 21 22
20 17 16 15 19 20 21 23 23 22 22 24 24 25 26 27 27 28 27 26 24 20 16 14 14 15 15 16 15 15 15 16 15 15 17 18 19 20 21 21 21 23 25 26